Weather History for Perth, WE

Change the Weather History Date:

Sunday, December 9, 2012

  Actual Average Record
Temperature  
Mean Temperature 76 °F -  
Max Temperature 95 °F 86 °F 98 °F (2004)
Min Temperature 56 °F 60 °F 48 °F (2003)
Cooling Degree Days 10    
Growing Degree Days 26 (Base 50)    
Moisture  
Dew Point 47 °F    
Average Humidity 38    
Maximum Humidity 73    
Minimum Humidity 11    
Precipitation  
Precipitation 0.00 in 0.01 in - ()
Sea Level Pressure  
Sea Level Pressure 30.03 in    
Wind  
Wind Speed 14 mph ()    
Max Wind Speed 26 mph    
Max Gust Speed 38 mph    
Visibility 10.2 miles    
Events Rain    
Averages and records for this station are not official NWS values.
T = Trace of Precipitation, MM = Missing Value Source: Averaged Metar Reports

Daily Weather History Graph

Daily Weather History Graph

Search for Another Location

Airport:

Trip Planner

Search our weather history database for the weather conditions in past years. The results will help you decide how hot, cold, wet, or windy it might be!

Date:

Astronomy

Dec. 09, 2012 Rise Set
Actual Time 5:03 AM AWST 7:14 PM AWST
Civil Twilight 4:35 AM AWST 7:42 PM AWST
Nautical Twilight 4:00 AM AWST 8:16 PM AWST
Astronomical Twilight 3:24 AM AWST 8:53 PM AWST
Moon 1:27 AM AWST (12/9) 2:42 PM AWST (12/9)
Length of Visible Light 15h 07m
Length of Day
14h 10m
Waning Crescent, 24% of the Moon is Illuminated
Dec 9
Waning Crescent
Dec 13
New
Dec 20
First Quarter
Dec 28
Full
Jan 5
Last Quarter

Hourly Weather History & Observations

Time (AWST) Temp. Heat Index Dew Point Humidity Pressure Visibility Wind Dir Wind Speed Gust Speed Precip Events Conditions
12:00 AM 62 °F - 42 °F 37% 30.10 in 16 mi East 8.1 mph - -   Partly Cloudy
12:00 AM 62.6 °F - 42.8 °F 48% 30.09 in - East 10.4 mph - N/A   Clear
12:15 AM 69.8 °F - 35.6 °F 28% 30.09 in - East 18.4 mph - N/A   Clear
12:30 AM 68.0 °F - 37.4 °F 33% 30.09 in - East 19.6 mph - N/A   Clear
12:51 AM 68.0 °F - 37.4 °F 33% 30.06 in - East 18.4 mph 29.9 mph N/A   Clear
1:00 AM 68.0 °F - 39.2 °F 35% 30.06 in - East 19.6 mph - N/A   Clear
1:18 AM 66.2 °F - 41.0 °F 40% 30.09 in - East 18.4 mph 29.9 mph N/A   Clear
1:36 AM 66.2 °F - 42.8 °F 43% 30.06 in - East 17.3 mph 31.1 mph N/A   Clear
2:00 AM 65 °F - 43 °F 33% 30.08 in - East 21.9 mph - -  
2:00 AM 64.4 °F - 42.8 °F 45% 30.06 in - East 21.9 mph 33.4 mph N/A   Clear
2:32 AM 62.6 °F - 42.8 °F 48% 30.06 in - East 26.5 mph 38.0 mph N/A   Clear
3:00 AM 62 °F - 44 °F 40% 30.07 in 16 mi East 26.5 mph - -   Partly Cloudy
3:00 AM 62.6 °F - 44.6 °F 52% 30.06 in - East 26.5 mph - N/A   Clear
3:18 AM 60.8 °F - 44.6 °F 55% 30.06 in - East 25.3 mph 36.8 mph N/A   Clear
3:30 AM 60.8 °F - 44.6 °F 55% 30.06 in - East 25.3 mph - N/A   Clear
3:46 AM 60.8 °F - 44.6 °F 55% 30.06 in - East 21.9 mph 33.4 mph N/A   Clear
4:00 AM 60.8 °F - 44.6 °F 55% 30.06 in - East 15.0 mph - N/A   Unknown
4:30 AM 60.8 °F - 42.8 °F 52% 30.06 in - ESE 12.7 mph - N/A   Clear
5:00 AM 59 °F - 44 °F 46% 30.12 in - ESE 10.4 mph - -  
5:00 AM 59.0 °F - 44.6 °F 59% 30.09 in - ESE 10.4 mph 21.9 mph N/A   Clear
5:30 AM 59.0 °F - 44.6 °F 59% 30.12 in - East 15.0 mph - N/A   Clear
5:50 AM 60.8 °F - 42.8 °F 52% 30.12 in - East 17.3 mph 31.1 mph N/A   Clear
6:00 AM 60 °F - 43 °F 43% 30.13 in 16 mi East 18.4 mph - -   Partly Cloudy
6:00 AM 60.8 °F - 42.8 °F 52% 30.12 in - East 18.4 mph 33.4 mph N/A   Clear
6:30 AM 62.6 °F - 44.6 °F 52% 30.12 in - East 19.6 mph 31.1 mph N/A   Clear
7:00 AM 62.6 °F - 42.8 °F 48% 30.12 in - East 16.1 mph - N/A   Clear
7:35 AM 66.2 °F - 42.8 °F 43% 30.12 in - East 18.4 mph 31.1 mph N/A   Clear
8:00 AM 67 °F - 44 °F 31% 30.12 in - East 19.6 mph - -  
8:00 AM 68.0 °F - 44.6 °F 43% 30.12 in - East 19.6 mph - N/A   Clear
8:08 AM 68.0 °F - 42.8 °F 40% 30.12 in - East 20.7 mph 32.2 mph N/A   Clear
8:30 AM 69.8 °F - 44.6 °F 40% 30.09 in - East 20.7 mph - N/A   Clear
9:00 AM 71 °F - 44 °F 26% 30.11 in 19 mi East 19.6 mph - -   Partly Cloudy
9:05 AM 73.4 °F - 44.6 °F 36% 30.09 in - East 19.6 mph 31.1 mph N/A   Clear
9:30 AM 75.2 °F - 44.6 °F 34% 30.09 in - East 20.7 mph - N/A   Clear
10:00 AM 77.0 °F - 46.4 °F 34% 30.09 in - East 17.3 mph - N/A   Clear
10:30 AM 78.8 °F - 46.4 °F 32% 30.06 in - East 18.4 mph - N/A   Clear
11:00 AM 81 °F - 45 °F 18% 30.07 in - East 18.4 mph - -  
11:00 AM 80.6 °F - 44.6 °F 28% 30.06 in - East 18.4 mph - N/A   Clear
11:30 AM 84.2 °F - 48.2 °F 29% 30.06 in - East 13.8 mph - N/A   Clear
12:00 PM 86.0 °F - 48.2 °F 27% 30.04 in - East 13.8 mph - N/A   Clear
12:30 PM 87.8 °F - 48.2 °F 25% 30.04 in 6.2 mi ENE 11.5 mph - N/A   Partly Cloudy
1:00 PM 87.8 °F - 46.4 °F 24% 30.01 in 6.2 mi NE 9.2 mph - N/A   Partly Cloudy
1:30 PM 89.6 °F - 48.2 °F 24% 29.98 in 6.2 mi ENE 9.2 mph - N/A   Partly Cloudy
2:00 PM 92 °F - 48 °F 13% 29.99 in - SE 8.1 mph - -  
2:00 PM 91.4 °F - 48.2 °F 23% 29.98 in - SE 8.1 mph - N/A   Clear
2:30 PM 93.2 °F - 48.2 °F 21% 29.95 in - SE 8.1 mph - N/A   Clear
3:00 PM 94 °F - 48 °F 13% 29.95 in 19 mi SSE 5.8 mph - -   Partly Cloudy
3:00 PM 93.2 °F - 48.2 °F 21% 29.95 in 6.2 mi SSE 5.8 mph - N/A   Partly Cloudy
3:30 PM 95.0 °F - 50.0 °F 22% 29.92 in 6.2 mi SSE 9.2 mph - N/A   Scattered Clouds
4:00 PM 93.2 °F - 48.2 °F 21% 29.92 in 6.2 mi SE 9.2 mph - N/A   Scattered Clouds
4:30 PM 95.0 °F - 46.4 °F 19% 29.89 in 6.2 mi SE 11.5 mph - N/A   Scattered Clouds
5:00 PM 95 °F - 47 °F 11% 29.91 in - SE 13.8 mph - -  
5:00 PM 95.0 °F - 46.4 °F 19% 29.89 in 6.2 mi SE 13.8 mph - N/A   Scattered Clouds
5:30 PM 93.2 °F - 46.4 °F 20% 29.92 in 6.2 mi SE 10.4 mph - N/A   Mostly Cloudy
6:00 PM 92 °F - 48 °F 14% 29.92 in 19 mi SE 11.5 mph - -   Mostly Cloudy
6:00 PM 91.4 °F - 48.2 °F 23% 29.92 in 6.2 mi SE 11.5 mph - N/A   Mostly Cloudy
6:30 PM 89.6 °F - 48.2 °F 24% 29.92 in 6.2 mi East 11.5 mph - N/A   Mostly Cloudy
7:00 PM 87.8 °F - 50.0 °F 27% 29.95 in 6.2 mi East 11.5 mph - N/A Rain Light Rain Showers
7:30 PM 82.4 °F 81.7 °F 55.4 °F 39% 29.98 in 6.2 mi NNE 16.1 mph - N/A   Mostly Cloudy
8:00 PM 82 °F - 56 °F 31% 29.99 in - NNE 15.0 mph - -  
8:00 PM 82.4 °F 82.0 °F 57.2 °F 42% 29.98 in - NNE 15.0 mph - N/A   Clear
8:30 PM 80.6 °F 81.1 °F 59.0 °F 48% 29.98 in - North 9.2 mph - N/A   Clear
9:00 PM 77 °F - 60 °F 46% 30.00 in 19 mi North 5.8 mph - -   Partly Cloudy
9:00 PM 77.0 °F - 60.8 °F 57% 29.98 in - North 5.8 mph - N/A   Clear
9:30 PM 75.2 °F - 60.8 °F 61% 29.98 in - North 6.9 mph - N/A   Clear
10:00 PM 75.2 °F - 60.8 °F 61% 29.98 in - ESE 6.9 mph - N/A   Clear
10:30 PM 73.4 °F - 60.8 °F 65% 29.98 in - East 5.8 mph - N/A   Clear
11:00 PM 72 °F - 62 °F 62% 29.98 in - North 5.8 mph - -  
11:00 PM 71.6 °F - 60.8 °F 69% 29.98 in - North 5.8 mph - N/A   Clear
11:30 PM 71.6 °F - 62.6 °F 73% 29.98 in - NE 4.6 mph - N/A   Clear